C/2024 V1 ( Borisov )

Japanese version
Home page
Updated on June 14, 2025

---------------------------------------------------------------------

* Profile

Discovery Date November 8, 2024
Magnitude 19.3 mag
Discoverer Gennadii Vladimirovich Borisov (Nauchnij, Crimea)

* Pictures

* Orbital Elements

Epoch 2025 May 5.0 TT = JDT 2460800.5
T 2025 Apr. 4.11195 TT                                  Payne
q   2.3184611            (2000.0)            P               Q
z  +0.0042729      Peri.  168.66772     -0.77331959     -0.46615844
 +/-0.0000045      Node   328.19454     +0.49908579     -0.02956216
e   0.9900935      Incl.   54.62512     +0.39101174     -0.88420721
From 408 observations 2024 Oct. 28-2025 Apr. 28, mean residual 0".5.

* Magnitudes Graph

        m1 = 12.0 + 5 log d + 12.0 log r

---------------------------------------------------------------------

The orbital elements are published on M.P.E.C. 2025-J08.
The magnitudes graphs are made with Comet for Windows.

---------------------------------------------------------------------

Copyright(C) Seiichi Yoshida (comet@aerith.net). All rights reserved.